This is the latest recevied weather packets stored in our database for station/object K7FRY. If no packets are shown the sender has not sent any weather packets the latest 10 day(s).
| Time | Temp. | Humidity | Pressure | Rain* | Wind** | Luminosity | Snow |
|---|---|---|---|---|---|---|---|
| 1777445281 | 19.44° C | 22% | 1017.2 hPa | 0 mm | - | 0 W/m² | - |
| 1777444976 | 19.44° C | 22% | 1017.6 hPa | 0 mm | - | 0 W/m² | - |
| 1777444671 | 19.44° C | 22% | 1017.3 hPa | 0 mm | - | 0 W/m² | - |
| 1777444369 | 19.44° C | 22% | 1017.4 hPa | 0 mm | - | 0 W/m² | - |
| 1777444066 | 18.89° C | 22% | 1017.3 hPa | 0 mm | - | 0 W/m² | - |
| 1777443762 | 18.33° C | 23% | 1017.4 hPa | 0 mm | - | 0 W/m² | - |
| 1777443457 | 18.33° C | 23% | 1017.4 hPa | 0 mm | - | 0 W/m² | - |
| 1777443154 | 18.33° C | 23% | 1017.3 hPa | 0 mm | - | 0 W/m² | - |
| 1777442851 | 18.89° C | 22% | 1017.4 hPa | 0 mm | - | 0 W/m² | - |
| 1777442547 | 19.44° C | 22% | 1017.5 hPa | 0 mm | - | 0 W/m² | - |
| 1777442243 | 20° C | 22% | 1017.3 hPa | 0 mm | - | 0 W/m² | - |
| 1777441939 | 19.44° C | 22% | 1017.5 hPa | 0 mm | - | 0 W/m² | - |
| 1777441634 | 20° C | 22% | 1017.4 hPa | 0 mm | - | 0 W/m² | - |
| 1777441330 | 20° C | 22% | 1017.5 hPa | 0 mm | - | 0 W/m² | - |
| 1777441026 | 20° C | 22% | 1017.6 hPa | 0 mm | - | 0 W/m² | - |
| 1777440722 | 20° C | 22% | 1017.5 hPa | 0 mm | - | 0 W/m² | - |
| 1777440417 | 20° C | 22% | 1017.6 hPa | 0 mm | - | 0 W/m² | - |
| 1777440114 | 19.44° C | 22% | 1017.4 hPa | 0 mm | - | 0 W/m² | - |
| 1777439809 | 20.56° C | 21% | 1017.4 hPa | 0 mm | - | 0 W/m² | - |
| 1777439505 | 20.56° C | 21% | 1017.6 hPa | 0 mm | - | 0 W/m² | - |
| 1777439201 | 20.56° C | 21% | 1017.2 hPa | 0 mm | - | 0 W/m² | - |
| 1777438898 | 19.44° C | 22% | 1017.4 hPa | 0 mm | - | 0 W/m² | - |
| 1777438595 | 20° C | 21% | 1017.2 hPa | 0 mm | - | 0 W/m² | - |
| 1777438291 | 20° C | 21% | 1016.7 hPa | 0 mm | - | 0 W/m² | - |
| 1777437986 | 20° C | 21% | 1017.3 hPa | 0 mm | - | 0 W/m² | - |
* Rain latest hour (hover to see other rain measurements)
** Current wind speed in m/s (hover to see current wind gust speed)